Content
SEND FEEDBACK

Daily
Averages
Monthly
Summary
United States of America

ST. LOUIS, MISSOURI


Home > North America > United States > Missouri
Elevation: 535 feet     Latitude: 38 45N     Longitude: 090 22W

WEATHER
 
SELECT A DAY
Number of Records: 196,364;   Date Range: 1/1/95 - 7/26/14
 
SHARE

PRINT THIS DATA

[ ← Previous Day ]
WEATHER ALMANAC - DECEMBER 15, 2013
[ Next Day → ]
[ °C ]   °F
Weather ElementAverageHighLow
Temperature27.4 °F37 °F (2:54 pm)19 °F (7:54 am)
Dewpoint21.9 °F28 °F (3:54 pm)16 °F (7:54 am)
Humidity80.4 %92 % (5:54 pm)65 % (2:54 pm)
Barometer30.15 in30.24 in (8:54 am)30.05 in (11:54 pm)
Wind Speed5.6 mph13.8 mph (4:54 am)
Wind Gust19.6 mph (4:54 am)
Weather ElementAverage
Visibility7.9 mi
Wind DirectionSSE (163.3 °)

Weather ElementTotal
Precipitation---
Heating Degree Days37 (Base 65)
Averaged from 24 records on December 15, 2013
WEATHER CONDITIONS BREAKOUT
WIND DIRECTION BREAKOUT
WEATHER BY HOUR - DECEMBER 15, 2013
[ °C ]   °F
Local TimeTemperatureDewpointHumidityBarometerVisibilityWind DirectionWind SpeedGust SpeedPrecipitationEventsConditions
1:54 AM25.0 °F18.0 °F75 %30.19 in10.0 miWNW (290°)10.4 mphOvercast
2:54 AM25.0 °F18.0 °F75 %30.20 in9.0 miWNW (290°)6.9 mphOvercast
3:54 AM25.0 °F19.0 °F78 %30.19 in9.0 miWest (270°)11.5 mphOvercast
4:54 AM24.1 °F19.0 °F81 %30.20 in8.0 miWNW (290°)13.8 mph19.6 mphOvercast
5:13 AM24.8 °F19.4 °F80 %30.16 in8.0 miWest (270°)10.4 mphOvercast
5:54 AM23.0 °F19.0 °F85 %30.20 in8.0 miWest (260°)12.7 mphOvercast
6:54 AM21.9 °F17.1 °F82 %30.22 in8.0 miWest (280°)6.9 mphScattered Clouds
7:54 AM19.0 °F16.0 °F88 %30.22 in6.0 miCalmClear
8:54 AM24.1 °F18.0 °F77 %30.24 in6.0 miWest (260°)6.9 mphHaze
9:54 AM26.1 °F19.9 °F78 %30.23 in6.0 miWest (260°)8.1 mphHaze
10:54 AM28.0 °F19.9 °F72 %30.20 in8.0 miWSW (240°)13.8 mph19.6 mphScattered Clouds
11:54 AM30.9 °F23.0 °F72 %30.18 in9.0 miWest (270°)4.6 mphScattered Clouds
12:54 PM33.1 °F24.1 °F70 %30.13 in10.0 miSSW (210°)6.9 mphClear
1:54 PM34.0 °F25.0 °F70 %30.11 in10.0 miSSW (200°)9.2 mphClear
2:54 PM37.0 °F26.1 °F65 %30.09 in10.0 miSouth (190°)8.1 mphClear
3:54 PM36.0 °F28.0 °F73 %30.11 in10.0 miNNW (340°)3.5 mphScattered Clouds
4:54 PM28.9 °F24.1 °F82 %30.11 in9.0 miCalmPartly Cloudy
5:54 PM25.0 °F23.0 °F92 %30.11 in7.0 miCalmClear
6:54 PM23.0 °F21.0 °F92 %30.11 in6.0 miCalmClear
7:54 PM27.0 °F24.1 °F89 %30.11 in6.0 miCalmPartly Cloudy
8:54 PM28.0 °F25.0 °F88 %30.09 in7.0 miCalmMostly Cloudy
9:54 PM28.0 °F26.1 °F92 %30.08 in6.0 miCalmOvercast
10:54 PM28.9 °F26.1 °F89 %30.07 in6.0 miCalmOvercast
11:54 PM30.9 °F27.0 °F85 %30.05 in7.0 miCalmOvercast
Hourly data recorded from KSUS, located miles away from St. Louis, Missouri







STORIES FROM OUR PARTNERS